This is the latest recevied weather packets stored in our database for station/object DL5DI-H. If no packets are shown the sender has not sent any weather packets the latest 10 day(s).
| Time | Temp. | Humidity | Pressure | Rain* | Wind** | Luminosity | Snow |
|---|---|---|---|---|---|---|---|
| 1777314005 | 18.89° C | 37% | 1019.8 hPa | 0 mm | - | - | - |
| 1777313404 | 20° C | 36% | 1019.8 hPa | 0 mm | - | - | - |
| 1777312801 | 20° C | 36% | 1019.8 hPa | 0 mm | - | - | - |
| 1777312205 | 20.56° C | 35% | 1019.8 hPa | 0 mm | - | - | - |
| 1777311605 | 22.22° C | 32% | 1020.1 hPa | 0 mm | - | - | - |
| 1777311001 | 22.22° C | 32% | 1020.1 hPa | 0 mm | - | - | - |
| 1777310404 | 22.22° C | 32% | 1020.1 hPa | 0 mm | - | - | - |
| 1777309805 | 22.22° C | 32% | 1020.1 hPa | 0 mm | - | - | - |
| 1777309201 | 22.22° C | 32% | 1020.1 hPa | 0 mm | - | - | - |
| 1777308605 | 23.89° C | 32% | 1020.1 hPa | 0 mm | - | - | - |
| 1777308005 | 23.89° C | 32% | 1020.1 hPa | 0 mm | - | - | - |
| 1777307404 | 23.89° C | 33% | 1020.2 hPa | 0 mm | - | - | - |
| 1777306801 | 23.89° C | 32% | 1020.2 hPa | 0 mm | - | - | - |
| 1777306205 | 24.44° C | 33% | 1020.3 hPa | 0 mm | - | - | - |
| 1777305604 | 24.44° C | 33% | 1020.4 hPa | 0 mm | - | - | - |
| 1777305001 | 24.44° C | 32% | 1020.5 hPa | 0 mm | - | - | - |
| 1777304401 | 23.89° C | 33% | 1021 hPa | 0 mm | - | - | - |
| 1777303801 | 23.89° C | 33% | 1021 hPa | 0 mm | - | - | - |
| 1777303201 | 23.89° C | 33% | 1021 hPa | 0 mm | - | - | - |
| 1777302601 | 23.89° C | 33% | 1021 hPa | 0 mm | - | - | - |
| 1777302001 | 23.89° C | 33% | 1021 hPa | 0 mm | - | - | - |
| 1777301400 | 23.89° C | 33% | 1021 hPa | 0 mm | - | - | - |
| 1777300801 | 23.33° C | 33% | 1021.2 hPa | 0 mm | - | - | - |
| 1777300205 | 22.78° C | 34% | 1021.4 hPa | 0 mm | - | - | - |
| 1777299605 | 22.78° C | 33% | 1021.4 hPa | 0 mm | - | - | - |
* Rain latest hour (hover to see other rain measurements)
** Current wind speed in m/s (hover to see current wind gust speed)